Year,Month,Day,Hour,Minute,Value (Times are PST for temperature in C)
2010,11,07,00,00,9.60
2010,11,07,00,01,9.60
2010,11,07,00,02,9.60
2010,11,07,00,03,9.60
2010,11,07,00,04,9.60
2010,11,07,00,05,9.60
2010,11,07,00,06,9.60
2010,11,07,00,07,9.60
2010,11,07,00,08,9.50
2010,11,07,00,09,9.50
2010,11,07,00,10,9.40
2010,11,07,00,11,9.40
2010,11,07,00,12,9.30
2010,11,07,00,13,9.30
2010,11,07,00,14,9.30
2010,11,07,00,15,9.30
2010,11,07,00,16,9.30
2010,11,07,00,17,9.30
2010,11,07,00,18,9.20
2010,11,07,00,19,9.20
2010,11,07,00,20,9.20
2010,11,07,00,21,9.30
2010,11,07,00,22,9.40
2010,11,07,00,23,9.40
2010,11,07,00,24,9.50
2010,11,07,00,25,9.60
2010,11,07,00,26,9.60
2010,11,07,00,27,9.60
2010,11,07,00,28,9.60
2010,11,07,00,29,9.60
2010,11,07,00,30,9.60
2010,11,07,00,31,9.60
2010,11,07,00,32,9.60
2010,11,07,00,33,9.60
2010,11,07,00,34,9.50
2010,11,07,00,35,9.40
2010,11,07,00,36,9.40
2010,11,07,00,37,9.30
2010,11,07,00,38,9.30
2010,11,07,00,39,9.30
2010,11,07,00,40,9.20
2010,11,07,00,41,9.10
2010,11,07,00,42,9.10
2010,11,07,00,43,9.10
2010,11,07,00,44,9.00
2010,11,07,00,45,8.90
2010,11,07,00,46,8.90
2010,11,07,00,47,8.90
2010,11,07,00,48,8.80
2010,11,07,00,49,8.80
2010,11,07,00,50,8.70
2010,11,07,00,51,8.70
2010,11,07,00,52,8.70
2010,11,07,00,53,8.70
2010,11,07,00,54,8.70
2010,11,07,00,55,8.80
2010,11,07,00,56,8.90
2010,11,07,00,57,9.00
2010,11,07,00,58,9.00
2010,11,07,00,59,9.00
2010,11,07,01,00,9.00
2010,11,07,01,01,9.00
2010,11,07,01,02,9.00
2010,11,07,01,03,8.90
2010,11,07,01,04,8.90
2010,11,07,01,05,8.90
2010,11,07,01,06,8.80
2010,11,07,01,07,8.80
2010,11,07,01,08,8.80
2010,11,07,01,09,8.80
2010,11,07,01,10,8.80
2010,11,07,01,11,8.80
2010,11,07,01,12,8.80
2010,11,07,01,13,8.80
2010,11,07,01,14,8.80
2010,11,07,01,15,8.70
2010,11,07,01,16,8.70
2010,11,07,01,17,8.70
2010,11,07,01,18,8.70
2010,11,07,01,19,8.70
2010,11,07,01,20,8.70
2010,11,07,01,21,8.70
2010,11,07,01,22,8.70
2010,11,07,01,23,8.60
2010,11,07,01,24,8.60
2010,11,07,01,25,8.60
2010,11,07,01,26,8.60
2010,11,07,01,27,8.60
2010,11,07,01,28,8.60
2010,11,07,01,29,8.60
2010,11,07,01,30,8.60
2010,11,07,01,31,8.60
2010,11,07,01,32,8.60
2010,11,07,01,33,8.60
2010,11,07,01,34,8.60
2010,11,07,01,35,8.60
2010,11,07,01,36,8.50
2010,11,07,01,37,8.50
2010,11,07,01,38,8.50
2010,11,07,01,39,8.50
2010,11,07,01,40,8.40
2010,11,07,01,41,8.40
2010,11,07,01,42,8.30
2010,11,07,01,43,8.30
2010,11,07,01,44,8.40
2010,11,07,01,45,8.40
2010,11,07,01,46,8.40
2010,11,07,01,47,8.40
2010,11,07,01,48,8.40
2010,11,07,01,49,8.40
2010,11,07,01,50,8.40
2010,11,07,01,51,8.30
2010,11,07,01,52,8.30
2010,11,07,01,53,8.30
2010,11,07,01,54,8.30
2010,11,07,01,55,8.30
2010,11,07,01,56,8.30
2010,11,07,01,57,8.30
2010,11,07,01,58,8.30
2010,11,07,01,59,8.30
2010,11,07,02,01,7.10
2010,11,07,02,02,7.10
2010,11,07,02,03,7.10
2010,11,07,02,04,7.10
2010,11,07,02,05,7.10
2010,11,07,02,06,7.10
2010,11,07,02,07,7.10
2010,11,07,02,08,7.10
2010,11,07,02,09,7.10
2010,11,07,02,10,7.10
2010,11,07,02,11,7.00
2010,11,07,02,12,7.00
2010,11,07,02,13,6.90
2010,11,07,02,14,6.90
2010,11,07,02,15,6.90
2010,11,07,02,16,6.80
2010,11,07,02,17,6.80
2010,11,07,02,18,6.70
2010,11,07,02,19,6.70
2010,11,07,02,20,6.70
2010,11,07,02,21,6.70
2010,11,07,02,22,6.70
2010,11,07,02,23,6.70
2010,11,07,02,24,6.70
2010,11,07,02,25,6.60
2010,11,07,02,26,6.60
2010,11,07,02,27,6.60
2010,11,07,02,28,6.50
2010,11,07,02,29,6.50
2010,11,07,02,30,6.50
2010,11,07,02,31,6.50
2010,11,07,02,32,6.50
2010,11,07,02,33,6.50
2010,11,07,02,34,6.40
2010,11,07,02,35,6.40
2010,11,07,02,36,6.40
2010,11,07,02,37,6.30
2010,11,07,02,38,6.30
2010,11,07,02,39,6.30
2010,11,07,02,40,6.30
2010,11,07,02,41,6.30
2010,11,07,02,42,6.30
2010,11,07,02,43,6.30
2010,11,07,02,44,6.20
2010,11,07,02,45,6.20
2010,11,07,02,46,6.20
2010,11,07,02,47,6.20
2010,11,07,02,48,6.20
2010,11,07,02,49,6.20
2010,11,07,02,50,6.20
2010,11,07,02,51,6.20
2010,11,07,02,52,6.20
2010,11,07,02,53,6.20
2010,11,07,02,54,6.20
2010,11,07,02,55,6.20
2010,11,07,02,56,6.20
2010,11,07,02,57,6.20
2010,11,07,02,58,6.20
2010,11,07,02,59,6.30
2010,11,07,03,00,6.30
2010,11,07,03,01,6.30
2010,11,07,03,02,6.40
2010,11,07,03,03,6.40
2010,11,07,03,04,6.40
2010,11,07,03,05,6.40
2010,11,07,03,06,6.40
2010,11,07,03,07,6.40
2010,11,07,03,08,6.40
2010,11,07,03,09,6.40
2010,11,07,03,10,6.40
2010,11,07,03,11,6.40
2010,11,07,03,12,6.40
2010,11,07,03,13,6.50
2010,11,07,03,14,6.50
2010,11,07,03,15,6.60
2010,11,07,03,16,6.60
2010,11,07,03,17,6.60
2010,11,07,03,18,6.60
2010,11,07,03,19,6.50
2010,11,07,03,20,6.50
2010,11,07,03,21,6.50
2010,11,07,03,22,6.40
2010,11,07,03,23,6.40
2010,11,07,03,24,6.40
2010,11,07,03,25,6.30
2010,11,07,03,26,6.30
2010,11,07,03,27,6.30
2010,11,07,03,28,6.30
2010,11,07,03,29,6.30
2010,11,07,03,30,6.20
2010,11,07,03,31,6.20
2010,11,07,03,32,6.20
2010,11,07,03,33,6.20
2010,11,07,03,34,6.20
2010,11,07,03,35,6.20
2010,11,07,03,36,6.20
2010,11,07,03,37,6.20
2010,11,07,03,38,6.20
2010,11,07,03,39,6.20
2010,11,07,03,40,6.20
2010,11,07,03,41,6.20
2010,11,07,03,42,6.10
2010,11,07,03,43,6.10
2010,11,07,03,44,6.10
2010,11,07,03,45,6.10
2010,11,07,03,46,6.10
2010,11,07,03,47,6.10
2010,11,07,03,48,6.00
2010,11,07,03,49,6.00
2010,11,07,03,50,6.00
2010,11,07,03,51,6.00
2010,11,07,03,52,6.00
2010,11,07,03,53,6.00
2010,11,07,03,54,6.00
2010,11,07,03,55,6.00
2010,11,07,03,56,6.10
2010,11,07,03,57,6.10
2010,11,07,03,58,6.10
2010,11,07,03,59,6.10
2010,11,07,04,00,6.10
2010,11,07,04,01,6.10
2010,11,07,04,02,6.10
2010,11,07,04,03,6.10
2010,11,07,04,04,6.10
2010,11,07,04,05,6.10
2010,11,07,04,06,6.10
2010,11,07,04,07,6.10
2010,11,07,04,08,6.10
2010,11,07,04,09,6.10
2010,11,07,04,10,6.10
2010,11,07,04,11,6.10
2010,11,07,04,12,6.10
2010,11,07,04,13,6.10
2010,11,07,04,14,6.10
2010,11,07,04,15,6.10
2010,11,07,04,16,6.10
2010,11,07,04,17,6.10
2010,11,07,04,18,6.10
2010,11,07,04,19,6.10
2010,11,07,04,20,6.20
2010,11,07,04,21,6.20
2010,11,07,04,22,6.20
2010,11,07,04,23,6.20
2010,11,07,04,24,6.20
2010,11,07,04,25,6.20
2010,11,07,04,26,6.20
2010,11,07,04,27,6.10
2010,11,07,04,28,6.10
2010,11,07,04,29,6.10
2010,11,07,04,30,6.10
2010,11,07,04,31,6.10
2010,11,07,04,32,6.10
2010,11,07,04,33,6.10
2010,11,07,04,34,6.10
2010,11,07,04,35,6.10
2010,11,07,04,36,6.10
2010,11,07,04,37,6.20
2010,11,07,04,38,6.20
2010,11,07,04,39,6.20
2010,11,07,04,40,6.20
2010,11,07,04,41,6.20
2010,11,07,04,42,6.20
2010,11,07,04,43,6.20
2010,11,07,04,44,6.20
2010,11,07,04,45,6.20
2010,11,07,04,46,6.20
2010,11,07,04,47,6.20
2010,11,07,04,48,6.30
2010,11,07,04,49,6.30
2010,11,07,04,50,6.30
2010,11,07,04,51,6.20
2010,11,07,04,52,6.20
2010,11,07,04,53,6.20
2010,11,07,04,54,6.10
2010,11,07,04,55,6.10
2010,11,07,04,56,6.00
2010,11,07,04,57,6.00
2010,11,07,04,58,5.90
2010,11,07,04,59,5.80
2010,11,07,05,00,5.80
2010,11,07,05,01,5.70
2010,11,07,05,02,5.60
2010,11,07,05,03,5.60
2010,11,07,05,04,5.50
2010,11,07,05,05,5.50
2010,11,07,05,06,5.50
2010,11,07,05,07,5.40
2010,11,07,05,08,5.40
2010,11,07,05,09,5.40
2010,11,07,05,10,5.40
2010,11,07,05,11,5.40
2010,11,07,05,12,5.40
2010,11,07,05,13,5.40
2010,11,07,05,14,5.40
2010,11,07,05,15,5.40
2010,11,07,05,16,5.40
2010,11,07,05,17,5.40
2010,11,07,05,18,5.40
2010,11,07,05,19,5.40
2010,11,07,05,20,5.40
2010,11,07,05,21,5.50
2010,11,07,05,22,5.50
2010,11,07,05,23,5.50
2010,11,07,05,24,5.40
2010,11,07,05,25,5.40
2010,11,07,05,26,5.30
2010,11,07,05,27,5.30
2010,11,07,05,28,5.30
2010,11,07,05,29,5.30
2010,11,07,05,30,5.30
2010,11,07,05,31,5.30
2010,11,07,05,32,5.30
2010,11,07,05,33,5.30
2010,11,07,05,34,5.30
2010,11,07,05,35,5.40
2010,11,07,05,36,5.40
2010,11,07,05,37,5.50
2010,11,07,05,38,5.50
2010,11,07,05,39,5.60
2010,11,07,05,40,5.70
2010,11,07,05,41,5.70
2010,11,07,05,42,5.70
2010,11,07,05,43,5.60
2010,11,07,05,44,5.60
2010,11,07,05,45,5.50
2010,11,07,05,46,5.50
2010,11,07,05,47,5.50
2010,11,07,05,48,5.50
2010,11,07,05,49,5.40
2010,11,07,05,50,5.40
2010,11,07,05,51,5.40
2010,11,07,05,52,5.40
2010,11,07,05,53,5.30
2010,11,07,05,54,5.30
2010,11,07,05,55,5.20
2010,11,07,05,56,5.10
2010,11,07,05,57,5.10
2010,11,07,05,58,5.00
2010,11,07,05,59,4.90
2010,11,07,06,00,4.90
2010,11,07,06,01,4.90
2010,11,07,06,02,4.80
2010,11,07,06,03,4.80
2010,11,07,06,04,4.80
2010,11,07,06,05,4.80
2010,11,07,06,06,4.80
2010,11,07,06,07,4.80
2010,11,07,06,08,4.80
2010,11,07,06,09,4.80
2010,11,07,06,10,4.80
2010,11,07,06,11,4.80
2010,11,07,06,12,4.80
2010,11,07,06,13,4.80
2010,11,07,06,14,4.80
2010,11,07,06,15,4.80
2010,11,07,06,16,4.80
2010,11,07,06,17,4.80
2010,11,07,06,18,4.80
2010,11,07,06,19,4.80
2010,11,07,06,20,4.80
2010,11,07,06,21,4.80
2010,11,07,06,22,4.80
2010,11,07,06,23,4.80
2010,11,07,06,24,4.70
2010,11,07,06,25,4.70
2010,11,07,06,26,4.70
2010,11,07,06,27,4.70
2010,11,07,06,28,4.70
2010,11,07,06,29,4.70
2010,11,07,06,30,4.60
2010,11,07,06,31,4.60
2010,11,07,06,32,4.60
2010,11,07,06,33,4.50
2010,11,07,06,34,4.50
2010,11,07,06,35,4.40
2010,11,07,06,36,4.40
2010,11,07,06,37,4.40
2010,11,07,06,38,4.30
2010,11,07,06,39,4.30
2010,11,07,06,40,4.30
2010,11,07,06,41,4.30
2010,11,07,06,42,4.30
2010,11,07,06,43,4.30
2010,11,07,06,44,4.30
2010,11,07,06,45,4.30
2010,11,07,06,46,4.30
2010,11,07,06,47,4.30
2010,11,07,06,48,4.30
2010,11,07,06,49,4.40
2010,11,07,06,50,4.40
2010,11,07,06,51,4.40
2010,11,07,06,52,4.40
2010,11,07,06,53,4.40
2010,11,07,06,54,4.30
2010,11,07,06,55,4.30
2010,11,07,06,56,4.30
2010,11,07,06,57,4.30
2010,11,07,06,58,4.20
2010,11,07,06,59,4.20
2010,11,07,07,00,4.20
2010,11,07,07,01,4.20
2010,11,07,07,02,4.20
2010,11,07,07,03,4.20
2010,11,07,07,04,4.20
2010,11,07,07,05,4.20
2010,11,07,07,06,4.20
2010,11,07,07,07,4.20
2010,11,07,07,08,4.20
2010,11,07,07,09,4.20
2010,11,07,07,10,4.20
2010,11,07,07,11,4.20
2010,11,07,07,12,4.20
2010,11,07,07,13,4.20
2010,11,07,07,14,4.20
2010,11,07,07,15,4.20
2010,11,07,07,16,4.20
2010,11,07,07,17,4.10
2010,11,07,07,18,4.10
2010,11,07,07,19,4.10
2010,11,07,07,20,4.00
2010,11,07,07,21,4.00
2010,11,07,07,22,3.90
2010,11,07,07,23,3.90
2010,11,07,07,24,3.90
2010,11,07,07,25,3.80
2010,11,07,07,26,3.80
2010,11,07,07,27,3.90
2010,11,07,07,28,3.90
2010,11,07,07,29,3.90
2010,11,07,07,30,3.90
2010,11,07,07,31,3.90
2010,11,07,07,32,3.90
2010,11,07,07,33,3.80
2010,11,07,07,34,3.80
2010,11,07,07,35,3.80
2010,11,07,07,36,3.80
2010,11,07,07,37,3.80
2010,11,07,07,38,3.80
2010,11,07,07,39,3.80
2010,11,07,07,40,3.80
2010,11,07,07,41,3.90
2010,11,07,07,42,3.90
2010,11,07,07,43,3.90
2010,11,07,07,44,3.90
2010,11,07,07,45,3.90
2010,11,07,07,46,3.90
2010,11,07,07,47,3.90
2010,11,07,07,48,3.90
2010,11,07,07,49,3.90
2010,11,07,07,50,3.90
2010,11,07,07,51,3.90
2010,11,07,07,52,3.90
2010,11,07,07,53,3.90
2010,11,07,07,54,3.90
2010,11,07,07,55,3.90
2010,11,07,07,56,3.90
2010,11,07,07,57,3.90
2010,11,07,07,58,4.00
2010,11,07,07,59,4.00
2010,11,07,08,00,4.00
2010,11,07,08,01,4.10
2010,11,07,08,02,4.20
2010,11,07,08,03,4.30
2010,11,07,08,04,4.30
2010,11,07,08,05,4.40
2010,11,07,08,06,4.50
2010,11,07,08,07,4.60
2010,11,07,08,08,4.60
2010,11,07,08,09,4.70
2010,11,07,08,10,4.80
2010,11,07,08,11,4.90
2010,11,07,08,12,5.00
2010,11,07,08,13,5.10
2010,11,07,08,14,5.30
2010,11,07,08,15,5.30
2010,11,07,08,16,5.40
2010,11,07,08,17,5.40
2010,11,07,08,18,5.40
2010,11,07,08,19,5.40
2010,11,07,08,20,5.50
2010,11,07,08,21,5.50
2010,11,07,08,22,5.50
2010,11,07,08,23,5.60
2010,11,07,08,24,5.60
2010,11,07,08,25,5.60
2010,11,07,08,26,5.70
2010,11,07,08,27,5.70
2010,11,07,08,28,5.80
2010,11,07,08,29,5.80
2010,11,07,08,30,5.90
2010,11,07,08,31,5.90
2010,11,07,08,32,6.00
2010,11,07,08,33,6.00
2010,11,07,08,34,6.10
2010,11,07,08,35,6.10
2010,11,07,08,36,6.10
2010,11,07,08,37,6.20
2010,11,07,08,38,6.20
2010,11,07,08,39,6.30
2010,11,07,08,40,6.40
2010,11,07,08,41,6.50
2010,11,07,08,42,6.60
2010,11,07,08,43,6.70
2010,11,07,08,44,6.80
2010,11,07,08,45,6.90
2010,11,07,08,46,6.90
2010,11,07,08,47,7.00
2010,11,07,08,48,7.10
2010,11,07,08,49,7.10
2010,11,07,08,50,7.20
2010,11,07,08,51,7.30
2010,11,07,08,52,7.30
2010,11,07,08,53,7.40
2010,11,07,08,54,7.50
2010,11,07,08,55,7.60
2010,11,07,08,56,7.60
2010,11,07,08,57,7.70
2010,11,07,08,58,7.80
2010,11,07,08,59,7.80
2010,11,07,09,00,7.80
2010,11,07,09,01,7.80
2010,11,07,09,02,7.80
2010,11,07,09,03,7.80
2010,11,07,09,04,7.80
2010,11,07,09,05,7.80
2010,11,07,09,06,7.80
2010,11,07,09,07,7.80
2010,11,07,09,08,7.80
2010,11,07,09,09,7.80
2010,11,07,09,10,7.90
2010,11,07,09,11,8.00
2010,11,07,09,12,8.10
2010,11,07,09,13,8.20
2010,11,07,09,14,8.20
2010,11,07,09,15,8.30
2010,11,07,09,16,8.40
2010,11,07,09,17,8.40
2010,11,07,09,18,8.50
2010,11,07,09,19,8.60
2010,11,07,09,20,8.70
2010,11,07,09,21,8.80
2010,11,07,09,22,9.00
2010,11,07,09,23,9.20
2010,11,07,09,24,9.30
2010,11,07,09,25,9.40
2010,11,07,09,26,9.50
2010,11,07,09,27,9.70
2010,11,07,09,28,9.80
2010,11,07,09,29,9.90
2010,11,07,09,30,10.00
2010,11,07,09,31,10.10
2010,11,07,09,32,10.20
2010,11,07,09,33,10.30
2010,11,07,09,34,10.30
2010,11,07,09,35,10.40
2010,11,07,09,36,10.50
2010,11,07,09,37,10.50
2010,11,07,09,38,10.60
2010,11,07,09,39,10.70
2010,11,07,09,40,10.70
2010,11,07,09,41,10.70
2010,11,07,09,42,10.80
2010,11,07,09,43,10.80
2010,11,07,09,44,10.90
2010,11,07,09,45,11.00
2010,11,07,09,46,11.10
2010,11,07,09,47,11.20
2010,11,07,09,48,11.20
2010,11,07,09,49,11.30
2010,11,07,09,50,11.40
2010,11,07,09,51,11.50
2010,11,07,09,52,11.60
2010,11,07,09,53,11.70
2010,11,07,09,54,11.80
2010,11,07,09,55,11.90
2010,11,07,09,56,12.00
2010,11,07,09,57,12.10
2010,11,07,09,58,12.10
2010,11,07,09,59,12.20
2010,11,07,10,00,12.20
2010,11,07,10,01,12.30
2010,11,07,10,02,12.30
2010,11,07,10,03,12.30
2010,11,07,10,04,12.20
2010,11,07,10,05,12.20
2010,11,07,10,06,12.10
2010,11,07,10,07,12.00
2010,11,07,10,08,12.00
2010,11,07,10,09,12.00
2010,11,07,10,10,12.00
2010,11,07,10,11,12.10
2010,11,07,10,12,12.20
2010,11,07,10,13,12.20
2010,11,07,10,14,12.20
2010,11,07,10,15,12.20
2010,11,07,10,16,12.20
2010,11,07,10,17,12.20
2010,11,07,10,18,12.20
2010,11,07,10,19,12.20
2010,11,07,10,20,12.20
2010,11,07,10,21,12.20
2010,11,07,10,22,12.20
2010,11,07,10,23,12.20
2010,11,07,10,24,12.30
2010,11,07,10,25,12.30
2010,11,07,10,26,12.30
2010,11,07,10,27,12.20
2010,11,07,10,28,12.10
2010,11,07,10,29,12.00
2010,11,07,10,30,11.90
2010,11,07,10,31,11.90
2010,11,07,10,32,11.90
2010,11,07,10,33,12.00
2010,11,07,10,34,12.00
2010,11,07,10,35,12.00
2010,11,07,10,36,11.90
2010,11,07,10,37,11.90
2010,11,07,10,38,11.80
2010,11,07,10,39,11.80
2010,11,07,10,40,11.70
2010,11,07,10,41,11.70
2010,11,07,10,42,11.70
2010,11,07,10,43,11.60
2010,11,07,10,44,11.60
2010,11,07,10,45,11.60
2010,11,07,10,46,11.60
2010,11,07,10,47,11.60
2010,11,07,10,48,11.60
2010,11,07,10,49,11.60
2010,11,07,10,50,11.60
2010,11,07,10,51,11.60
2010,11,07,10,52,11.60
2010,11,07,10,53,11.60
2010,11,07,10,54,11.70
2010,11,07,10,55,11.70
2010,11,07,10,56,11.70
2010,11,07,10,57,11.80
2010,11,07,10,58,11.90
2010,11,07,10,59,11.90
2010,11,07,11,00,12.00
2010,11,07,11,01,12.00
2010,11,07,11,02,12.10
2010,11,07,11,03,12.10
2010,11,07,11,04,12.20
2010,11,07,11,05,12.30
2010,11,07,11,06,12.30
2010,11,07,11,07,12.30
2010,11,07,11,08,12.30
2010,11,07,11,09,12.30
2010,11,07,11,10,12.40
2010,11,07,11,11,12.50
2010,11,07,11,12,12.60
2010,11,07,11,13,12.60
2010,11,07,11,14,12.80
2010,11,07,11,15,12.90
2010,11,07,11,16,12.90
2010,11,07,11,17,12.90
2010,11,07,11,18,12.80
2010,11,07,11,19,12.70
2010,11,07,11,20,12.70
2010,11,07,11,21,12.70
2010,11,07,11,22,12.70
2010,11,07,11,23,12.80
2010,11,07,11,24,12.70
2010,11,07,11,25,12.70
2010,11,07,11,26,12.70
2010,11,07,11,27,12.60
2010,11,07,11,28,12.50
2010,11,07,11,29,12.20
2010,11,07,11,30,11.90
2010,11,07,11,31,11.80
2010,11,07,11,32,11.70
2010,11,07,11,33,11.70
2010,11,07,11,34,11.60
2010,11,07,11,35,11.60
2010,11,07,11,36,11.60
2010,11,07,11,37,11.70
2010,11,07,11,38,11.90
2010,11,07,11,39,12.00
2010,11,07,11,40,12.20
2010,11,07,11,41,12.30
2010,11,07,11,42,12.50
2010,11,07,11,43,12.60
2010,11,07,11,44,12.70
2010,11,07,11,45,12.80
2010,11,07,11,46,12.80
2010,11,07,11,47,12.90
2010,11,07,11,48,12.80
2010,11,07,11,49,12.70
2010,11,07,11,50,12.60
2010,11,07,11,51,12.50
2010,11,07,11,52,12.40
2010,11,07,11,53,12.40
2010,11,07,11,54,12.40
2010,11,07,11,55,12.40
2010,11,07,11,56,12.40
2010,11,07,11,57,12.40
2010,11,07,11,58,12.50
2010,11,07,11,59,12.60
2010,11,07,12,00,12.60
2010,11,07,12,01,12.70
2010,11,07,12,02,12.70
2010,11,07,12,03,12.70
2010,11,07,12,04,12.70
2010,11,07,12,05,12.60
2010,11,07,12,06,12.50
2010,11,07,12,07,12.40
2010,11,07,12,08,12.40
2010,11,07,12,09,12.40
2010,11,07,12,10,12.50
2010,11,07,12,11,12.50
2010,11,07,12,12,12.60
2010,11,07,12,13,12.60
2010,11,07,12,14,12.50
2010,11,07,12,15,12.40
2010,11,07,12,16,12.40
2010,11,07,12,17,12.40
2010,11,07,12,18,12.40
2010,11,07,12,19,12.40
2010,11,07,12,20,12.40
2010,11,07,12,21,12.30
2010,11,07,12,22,12.30
2010,11,07,12,23,12.30
2010,11,07,12,24,12.20
2010,11,07,12,25,12.20
2010,11,07,12,26,12.20
2010,11,07,12,27,12.30
2010,11,07,12,28,12.30
2010,11,07,12,29,12.30
2010,11,07,12,30,12.40
2010,11,07,12,31,12.40
2010,11,07,12,32,12.40
2010,11,07,12,33,12.40
2010,11,07,12,34,12.50
2010,11,07,12,35,12.50
2010,11,07,12,36,12.50
2010,11,07,12,37,12.50
2010,11,07,12,38,12.50
2010,11,07,12,39,12.50
2010,11,07,12,40,12.50
2010,11,07,12,41,12.60
2010,11,07,12,42,12.60
2010,11,07,12,43,12.50
2010,11,07,12,44,12.40
2010,11,07,12,45,12.40
2010,11,07,12,46,12.30
2010,11,07,12,47,12.30
2010,11,07,12,48,12.20
2010,11,07,12,49,12.10
2010,11,07,12,50,12.20
2010,11,07,12,51,12.10
2010,11,07,12,52,12.10
2010,11,07,12,53,12.00
2010,11,07,12,54,11.90
2010,11,07,12,55,11.90
2010,11,07,12,56,11.90
2010,11,07,12,57,11.90
2010,11,07,12,58,11.90
2010,11,07,12,59,12.00
2010,11,07,13,00,12.00
2010,11,07,13,01,12.10
2010,11,07,13,02,12.10
2010,11,07,13,03,12.10
2010,11,07,13,04,12.20
2010,11,07,13,05,12.20
2010,11,07,13,06,12.30
2010,11,07,13,07,12.40
2010,11,07,13,08,12.50
2010,11,07,13,09,12.70
2010,11,07,13,10,12.70
2010,11,07,13,11,12.80
2010,11,07,13,12,12.80
2010,11,07,13,13,12.90
2010,11,07,13,14,12.90
2010,11,07,13,15,13.00
2010,11,07,13,16,13.10
2010,11,07,13,17,13.20
2010,11,07,13,18,13.20
2010,11,07,13,19,13.10
2010,11,07,13,20,13.00
2010,11,07,13,21,12.70
2010,11,07,13,22,12.40
2010,11,07,13,23,12.20
2010,11,07,13,24,12.00
2010,11,07,13,25,11.90
2010,11,07,13,26,11.80
2010,11,07,13,27,11.80
2010,11,07,13,28,11.80
2010,11,07,13,29,11.70
2010,11,07,13,30,11.60
2010,11,07,13,31,11.60
2010,11,07,13,32,11.60
2010,11,07,13,33,11.50
2010,11,07,13,34,11.50
2010,11,07,13,35,11.50
2010,11,07,13,36,11.50
2010,11,07,13,37,11.60
2010,11,07,13,38,11.60
2010,11,07,13,39,11.60
2010,11,07,13,40,11.60
2010,11,07,13,41,11.60
2010,11,07,13,42,11.60
2010,11,07,13,43,11.60
2010,11,07,13,44,11.60
2010,11,07,13,45,11.50
2010,11,07,13,46,11.40
2010,11,07,13,47,11.30
2010,11,07,13,48,11.30
2010,11,07,13,49,11.30
2010,11,07,13,50,11.20
2010,11,07,13,51,11.20
2010,11,07,13,52,11.30
2010,11,07,13,53,11.30
2010,11,07,13,54,11.40
2010,11,07,13,55,11.40
2010,11,07,13,56,11.30
2010,11,07,13,57,11.30
2010,11,07,13,58,11.30
2010,11,07,13,59,11.30
2010,11,07,14,00,11.30
2010,11,07,14,01,11.30
2010,11,07,14,02,11.30
2010,11,07,14,03,11.30
2010,11,07,14,04,11.30
2010,11,07,14,05,11.20
2010,11,07,14,06,11.20
2010,11,07,14,07,11.20
2010,11,07,14,08,11.20
2010,11,07,14,09,11.20
2010,11,07,14,10,11.20
2010,11,07,14,11,11.20
2010,11,07,14,12,11.10
2010,11,07,14,13,11.10
2010,11,07,14,14,11.10
2010,11,07,14,15,11.10
2010,11,07,14,16,11.00
2010,11,07,14,17,11.00
2010,11,07,14,18,11.00
2010,11,07,14,19,11.00
2010,11,07,14,20,10.90
2010,11,07,14,21,10.90
2010,11,07,14,22,10.90
2010,11,07,14,23,10.90
2010,11,07,14,24,10.90
2010,11,07,14,25,10.80
2010,11,07,14,26,10.80
2010,11,07,14,27,10.80
2010,11,07,14,28,10.80
2010,11,07,14,29,10.80
2010,11,07,14,30,10.80
2010,11,07,14,31,10.80
2010,11,07,14,32,10.80
2010,11,07,14,33,10.80
2010,11,07,14,34,10.80
2010,11,07,14,35,10.80
2010,11,07,14,36,10.80
2010,11,07,14,37,10.80
2010,11,07,14,38,10.80
2010,11,07,14,39,10.70
2010,11,07,14,40,10.70
2010,11,07,14,41,10.60
2010,11,07,14,42,10.60
2010,11,07,14,43,10.50
2010,11,07,14,44,10.40
2010,11,07,14,45,10.30
2010,11,07,14,46,10.30
2010,11,07,14,47,10.20
2010,11,07,14,48,10.10
2010,11,07,14,49,10.10
2010,11,07,14,50,10.00
2010,11,07,14,51,9.90
2010,11,07,14,52,9.90
2010,11,07,14,53,9.80
2010,11,07,14,54,9.80
2010,11,07,14,55,9.70
2010,11,07,14,56,9.70
2010,11,07,14,57,9.60
2010,11,07,14,58,9.50
2010,11,07,14,59,9.50
2010,11,07,15,00,9.40
2010,11,07,15,01,9.40
2010,11,07,15,02,9.30
2010,11,07,15,03,9.30
2010,11,07,15,04,9.30
2010,11,07,15,05,9.30
2010,11,07,15,06,9.30
2010,11,07,15,07,9.20
2010,11,07,15,08,9.20
2010,11,07,15,09,9.20
2010,11,07,15,10,9.20
2010,11,07,15,11,9.20
2010,11,07,15,12,9.10
2010,11,07,15,13,9.10
2010,11,07,15,14,9.10
2010,11,07,15,15,9.10
2010,11,07,15,16,9.00
2010,11,07,15,17,9.00
2010,11,07,15,18,8.90
2010,11,07,15,19,8.90
2010,11,07,15,20,8.90
2010,11,07,15,21,8.80
2010,11,07,15,22,8.80
2010,11,07,15,23,8.80
2010,11,07,15,24,8.80
2010,11,07,15,25,8.70
2010,11,07,15,26,8.70
2010,11,07,15,27,8.70
2010,11,07,15,28,8.70
2010,11,07,15,29,8.70
2010,11,07,15,30,8.70
2010,11,07,15,31,8.60
2010,11,07,15,32,8.60
2010,11,07,15,33,8.60
2010,11,07,15,34,8.60
2010,11,07,15,35,8.60
2010,11,07,15,36,8.60
2010,11,07,15,37,8.60
2010,11,07,15,38,8.60
2010,11,07,15,39,8.60
2010,11,07,15,40,8.60
2010,11,07,15,41,8.60
2010,11,07,15,42,8.50
2010,11,07,15,43,8.50
2010,11,07,15,44,8.40
2010,11,07,15,45,8.40
2010,11,07,15,46,8.40
2010,11,07,15,47,8.40
2010,11,07,15,48,8.40
2010,11,07,15,49,8.30
2010,11,07,15,50,8.30
2010,11,07,15,51,8.20
2010,11,07,15,52,8.20
2010,11,07,15,53,8.20
2010,11,07,15,54,8.20
2010,11,07,15,55,8.20
2010,11,07,15,56,8.20
2010,11,07,15,57,8.20
2010,11,07,15,58,8.20
2010,11,07,15,59,8.10
2010,11,07,16,00,8.10
2010,11,07,16,01,8.10
2010,11,07,16,02,8.10
2010,11,07,16,03,8.10
2010,11,07,16,04,8.10
2010,11,07,16,05,8.10
2010,11,07,16,06,8.10
2010,11,07,16,07,8.10
2010,11,07,16,08,8.10
2010,11,07,16,09,8.10
2010,11,07,16,10,8.10
2010,11,07,16,11,8.10
2010,11,07,16,12,8.10
2010,11,07,16,13,8.10
2010,11,07,16,14,8.10
2010,11,07,16,15,8.10
2010,11,07,16,16,8.10
2010,11,07,16,17,8.00
2010,11,07,16,18,8.00
2010,11,07,16,19,8.00
2010,11,07,16,20,8.00
2010,11,07,16,21,8.00
2010,11,07,16,22,8.00
2010,11,07,16,23,8.00
2010,11,07,16,24,7.90
2010,11,07,16,25,7.90
2010,11,07,16,26,7.90
2010,11,07,16,27,7.90
2010,11,07,16,28,7.90
2010,11,07,16,29,7.80
2010,11,07,16,30,7.80
2010,11,07,16,31,7.80
2010,11,07,16,32,7.80
2010,11,07,16,33,7.80
2010,11,07,16,34,7.80
2010,11,07,16,35,7.80
2010,11,07,16,36,7.80
2010,11,07,16,37,7.80
2010,11,07,16,38,7.70
2010,11,07,16,39,7.70
2010,11,07,16,40,7.70
2010,11,07,16,41,7.70
2010,11,07,16,42,7.70
2010,11,07,16,43,7.70
2010,11,07,16,44,7.70
2010,11,07,16,45,7.70
2010,11,07,16,46,7.70
2010,11,07,16,47,7.70
2010,11,07,16,48,7.70
2010,11,07,16,49,7.70
2010,11,07,16,50,7.70
2010,11,07,16,51,7.70
2010,11,07,16,52,7.70
2010,11,07,16,53,7.70
2010,11,07,16,54,7.60
2010,11,07,16,55,7.60
2010,11,07,16,56,7.60
2010,11,07,16,57,7.60
2010,11,07,16,58,7.60
2010,11,07,16,59,7.60
2010,11,07,17,00,7.60
2010,11,07,17,01,7.50
2010,11,07,17,02,7.50
2010,11,07,17,03,7.50
2010,11,07,17,04,7.50
2010,11,07,17,05,7.50
2010,11,07,17,06,7.50
2010,11,07,17,07,7.50
2010,11,07,17,08,7.50
2010,11,07,17,09,7.50
2010,11,07,17,10,7.50
2010,11,07,17,11,7.50
2010,11,07,17,12,7.50
2010,11,07,17,13,7.40
2010,11,07,17,14,7.40
2010,11,07,17,15,7.40
2010,11,07,17,16,7.40
2010,11,07,17,17,7.40
2010,11,07,17,18,7.40
2010,11,07,17,19,7.40
2010,11,07,17,20,7.40
2010,11,07,17,21,7.50
2010,11,07,17,22,7.50
2010,11,07,17,23,7.60
2010,11,07,17,24,7.60
2010,11,07,17,25,7.60
2010,11,07,17,26,7.60
2010,11,07,17,27,7.60
2010,11,07,17,28,7.60
2010,11,07,17,29,7.50
2010,11,07,17,30,7.50
2010,11,07,17,31,7.50
2010,11,07,17,32,7.50
2010,11,07,17,33,7.50
2010,11,07,17,34,7.40
2010,11,07,17,35,7.40
2010,11,07,17,36,7.40
2010,11,07,17,37,7.40
2010,11,07,17,38,7.40
2010,11,07,17,39,7.40
2010,11,07,17,40,7.40
2010,11,07,17,41,7.40
2010,11,07,17,42,7.40
2010,11,07,17,43,7.40
2010,11,07,17,44,7.40
2010,11,07,17,45,7.40
2010,11,07,17,46,7.40
2010,11,07,17,47,7.40
2010,11,07,17,48,7.40
2010,11,07,17,49,7.40
2010,11,07,17,50,7.30
2010,11,07,17,51,7.30
2010,11,07,17,52,7.30
2010,11,07,17,53,7.30